sat.trackr.live / text

‹ back to catalog

GALAXY 18 (G-18)

NORAD 32951 · 2008-024A

PAYLOAD ACTIVE UNKNOWN

§ Identity

Operator
Country
US
Launch date
2008-05-21
Launch site
SEAL
Launch vehicle
Mass (kg)
RCS (m²)
20.98

Purposes: comms

External: N2YO · Heavens-Above · Gunter

§ Orbital elements

Epoch: 2026-05-25T03:50:38.783040Z

Period
1,436.12 min
Inclination
0.0314°
Eccentricity
0.0003047
Mean motion
1.00270129 rev/d
Perigee alt
35,774.2 km
Apogee alt
35,799.9 km
Semi-major
42,165.2 km
B*
0.0000e+0
RAAN
111.4574°
Arg perigee
318.2397°
Mean anomaly
107.7015°
Rev number
4,562

§ Raw data

GALAXY 18 (G-18)1 32951U 08024A   26145.16017110  .00000023  00000+0  00000+0 0  99922 32951   0.0314 111.4574 0003047 318.2397 107.7015  1.00270129 45620

JSON: /api/v1/satellites/32951 · /tle

For live sub-satellite position, see the globe view (requires WebGL).

§ Visibility from observer

Set your observer location to see the next 7 days of passes ≥ 10°. The values pass through the URL so the page stays shareable.

No JS? Fill the form by hand. The geolocation button needs JavaScript.